When you browse on this site, cookies collect data to enhance your experience and personalize the content and advertising you see.
Visit our Privacy Policy to learn more. By continuing to use the site, you agree to this use of cookies and data.
  • Em Portugal
  • Lista de países
  • Para 7 dias
  • Temperatura da água
  • Mapa do tempo
  • Widgets de tempo
  • user-avatar
    Iniciar Sessão

    Previsão horária em Laszkar Gah

    Hoje, 5 Junho, Sexta-feira

    Tempo Temperatura Precipitação Vento Pressão Humidade
    00:00 +34°C° 0 mm 8 m/s 687 mmHg 8%
    01:00 +34°C° 0 mm 10 m/s 687 mmHg 10%
    02:00 +34°C° 0 mm 10 m/s 687 mmHg 10%
    03:00 +33°C° 0 mm 10 m/s 687 mmHg 11%
    04:00 +33°C° 0 mm 10 m/s 687 mmHg 11%
    05:00 +34°C° 0 mm 10 m/s 688 mmHg 11%
    06:00 +36°C° 0 mm 11 m/s 689 mmHg 10%
    07:00 +37°C° 0 mm 12 m/s 689 mmHg 10%
    08:00 +39°C° 0 mm 11 m/s 689 mmHg 8%
    09:00 +42°C° 0 mm 10 m/s 690 mmHg 7%
    10:00 +44°C° 0 mm 9 m/s 690 mmHg 6%
    11:00 +45°C° 0 mm 8 m/s 689 mmHg 5%
    12:00 +45°C° 0 mm 8 m/s 689 mmHg 5%
    13:00 +46°C° 0 mm 7 m/s 688 mmHg 4%
    14:00 +46°C° 0 mm 6 m/s 688 mmHg 4%
    15:00 +47°C° 0 mm 6 m/s 687 mmHg 4%
    16:00 +47°C° 0 mm 6 m/s 687 mmHg 4%
    17:00 +45°C° 0 mm 7 m/s 687 mmHg 5%
    18:00 +43°C° 0 mm 7 m/s 687 mmHg 6%
    19:00 +41°C° 0 mm 8 m/s 687 mmHg 6%
    20:00 +40°C° 0 mm 10 m/s 687 mmHg 7%
    21:00 +39°C° 0 mm 12 m/s 687 mmHg 8%
    22:00 +39°C° 0 mm 13 m/s 688 mmHg 8%
    23:00 +38°C° 0 mm 13 m/s 688 mmHg 9%

    Amanhã, 6 Junho, Sábado

    Tempo Temperatura Precipitação Vento Pressão Humidade
    00:00 +37°C° 0 mm 12 m/s 688 mmHg 9%
    01:00 +37°C° 0 mm 11 m/s 688 mmHg 10%
    02:00 +36°C° 0 mm 10 m/s 688 mmHg 11%
    03:00 +34°C° 0 mm 9 m/s 688 mmHg 12%
    04:00 +33°C° 0 mm 9 m/s 688 mmHg 13%
    05:00 +35°C° 0 mm 9 m/s 688 mmHg 12%
    06:00 +37°C° 0 mm 9 m/s 689 mmHg 11%
    07:00 +38°C° 0 mm 10 m/s 689 mmHg 11%
    08:00 +39°C° 0 mm 9 m/s 690 mmHg 9%
    09:00 +42°C° 0 mm 9 m/s 690 mmHg 8%
    10:00 +44°C° 0 mm 8 m/s 690 mmHg 7%
    11:00 +45°C° 0 mm 8 m/s 689 mmHg 6%
    12:00 +46°C° 0 mm 7 m/s 689 mmHg 5%
    13:00 +47°C° 0 mm 7 m/s 688 mmHg 4%
    14:00 +47°C° 0 mm 6 m/s 688 mmHg 4%
    15:00 +47°C° 0 mm 5 m/s 687 mmHg 4%
    16:00 +47°C° 0 mm 4 m/s 687 mmHg 3%
    17:00 +45°C° 0 mm 5 m/s 686 mmHg 4%
    18:00 +42°C° 0 mm 6 m/s 686 mmHg 5%
    19:00 +40°C° 0 mm 6 m/s 686 mmHg 5%
    20:00 +39°C° 0 mm 8 m/s 686 mmHg 6%
    21:00 +38°C° 0 mm 10 m/s 686 mmHg 6%
    22:00 +37°C° 0 mm 12 m/s 686 mmHg 7%
    23:00 +36°C° 0 mm 11 m/s 686 mmHg 7%

    Depois de amanhã, 7 Junho, Domingo

    Tempo Temperatura Precipitação Vento Pressão Humidade
    00:00 +34°C° 0 mm 10 m/s 686 mmHg 7%
    01:00 +33°C° 0 mm 9 m/s 686 mmHg 8%
    02:00 +33°C° 0 mm 9 m/s 686 mmHg 8%
    03:00 +32°C° 0 mm 8 m/s 686 mmHg 8%
    04:00 +31°C° 0 mm 8 m/s 686 mmHg 9%
    05:00 +33°C° 0 mm 9 m/s 687 mmHg 8%
    06:00 +34°C° 0 mm 10 m/s 687 mmHg 7%
    07:00 +37°C° 0 mm 11 m/s 688 mmHg 7%
    08:00 +39°C° 0 mm 10 m/s 688 mmHg 6%
    09:00 +42°C° 0 mm 9 m/s 689 mmHg 6%
    10:00 +43°C° 0 mm 8 m/s 689 mmHg 5%
    11:00 +44°C° 0 mm 7 m/s 688 mmHg 4%
    12:00 +45°C° 0 mm 5 m/s 688 mmHg 4%
    13:00 +45°C° 0 mm 4 m/s 688 mmHg 3%
    14:00 +45°C° 0 mm 4 m/s 687 mmHg 3%
    15:00 +45°C° 0 mm 3 m/s 686 mmHg 3%
    16:00 +45°C° 0 mm 3 m/s 686 mmHg 2%
    17:00 +41°C° 0 mm 2 m/s 685 mmHg 3%
    18:00 +37°C° 0 mm 1 m/s 685 mmHg 4%
    19:00 +34°C° 0 mm 1 m/s 684 mmHg 5%
    20:00 +34°C° 0 mm 1 m/s 685 mmHg 5%
    21:00 +34°C° 0 mm 2 m/s 685 mmHg 5%
    22:00 +34°C° 0 mm 2 m/s 685 mmHg 5%
    23:00 +33°C° 0 mm 3 m/s 685 mmHg 7%

    8 Junho, Segunda-feira

    Tempo Temperatura Precipitação Vento Pressão Humidade
    00:00 +33°C° 0 mm 3 m/s 685 mmHg 10%
    01:00 +31°C° 0 mm 3 m/s 685 mmHg 12%
    02:00 +32°C° 0 mm 4 m/s 685 mmHg 12%
    03:00 +32°C° 0 mm 4 m/s 685 mmHg 12%
    04:00 +30°C° 0 mm 5 m/s 685 mmHg 13%
    05:00 +33°C° 0 mm 4 m/s 686 mmHg 12%
    06:00 +34°C° 0 mm 3 m/s 686 mmHg 11%
    07:00 +36°C° 0 mm 3 m/s 687 mmHg 10%
    08:00 +38°C° 0 mm 3 m/s 688 mmHg 9%
    09:00 +40°C° 0 mm 2 m/s 688 mmHg 7%
    10:00 +41°C° 0 mm 2 m/s 688 mmHg 6%
    11:00 +43°C° 0 mm 2 m/s 688 mmHg 6%
    12:00 +45°C° 0 mm 2 m/s 688 mmHg 5%
    13:00 +46°C° 0 mm 2 m/s 687 mmHg 5%
    14:00 +47°C° 0 mm 4 m/s 687 mmHg 5%
    15:00 +48°C° 0 mm 5 m/s 687 mmHg 4%
    16:00 +48°C° 0 mm 6 m/s 686 mmHg 4%
    17:00 +46°C° 0 mm 6 m/s 686 mmHg 5%
    18:00 +43°C° 0 mm 5 m/s 686 mmHg 6%
    19:00 +41°C° 0 mm 5 m/s 686 mmHg 7%
    20:00 +40°C° 0 mm 5 m/s 686 mmHg 9%
    21:00 +39°C° 0 mm 5 m/s 686 mmHg 10%
    22:00 +37°C° 0 mm 5 m/s 687 mmHg 11%
    23:00 +35°C° 0 mm 4 m/s 686 mmHg 12%

    9 Junho, Terça-feira

    Tempo Temperatura Precipitação Vento Pressão Humidade
    00:00 +34°C° 0 mm 3 m/s 686 mmHg 13%
    01:00 +32°C° 0 mm 2 m/s 686 mmHg 14%
    02:00 +31°C° 0 mm 2 m/s 686 mmHg 14%
    03:00 +31°C° 0 mm 2 m/s 686 mmHg 14%
    04:00 +30°C° 0 mm 2 m/s 686 mmHg 15%
    05:00 +31°C° 0 mm 3 m/s 687 mmHg 15%
    06:00 +34°C° 0 mm 4 m/s 688 mmHg 15%
    07:00 +35°C° 0 mm 5 m/s 688 mmHg 15%
    08:00 +37°C° 0 mm 5 m/s 689 mmHg 14%
    09:00 +40°C° 0 mm 5 m/s 689 mmHg 13%
    10:00 +42°C° 0 mm 5 m/s 689 mmHg 11%
    11:00 +45°C° 0 mm 6 m/s 689 mmHg 9%
    12:00 +47°C° 0 mm 7 m/s 689 mmHg 8%
    13:00 +49°C° 0 mm 7 m/s 689 mmHg 6%
    14:00 +49°C° 0 mm 8 m/s 688 mmHg 6%
    15:00 +49°C° 0 mm 9 m/s 688 mmHg 6%
    16:00 +49°C° 0 mm 9 m/s 688 mmHg 6%
    17:00 +47°C° 0 mm 9 m/s 687 mmHg 7%
    18:00 +44°C° 0 mm 8 m/s 687 mmHg 7%
    19:00 +41°C° 0 mm 8 m/s 687 mmHg 8%
    20:00 +39°C° 0 mm 7 m/s 687 mmHg 8%
    21:00 +38°C° 0 mm 6 m/s 687 mmHg 7%
    22:00 +35°C° 0 mm 5 m/s 688 mmHg 7%
    23:00 +34°C° 0 mm 5 m/s 687 mmHg 9%

    10 Junho, Quarta-feira

    Tempo Temperatura Precipitação Vento Pressão Humidade
    00:00 +32°C° 0 mm 4 m/s 687 mmHg 10%
    01:00 +30°C° 0 mm 4 m/s 686 mmHg 12%
    02:00 +29°C° 0 mm 4 m/s 687 mmHg 13%
    03:00 +28°C° 0 mm 3 m/s 687 mmHg 15%
    04:00 +27°C° 0 mm 3 m/s 687 mmHg 17%
    05:00 +28°C° 0 mm 3 m/s 687 mmHg 16%
    06:00 +29°C° 0 mm 4 m/s 688 mmHg 16%
    07:00 +30°C° 0 mm 4 m/s 689 mmHg 15%
    08:00 +33°C° 0 mm 4 m/s 689 mmHg 14%
    09:00 +36°C° 0 mm 3 m/s 689 mmHg 12%
    10:00 +38°C° 0 mm 3 m/s 690 mmHg 10%
    11:00 +40°C° 0 mm 3 m/s 689 mmHg 9%
    12:00 +43°C° 0 mm 3 m/s 689 mmHg 7%
    13:00 +44°C° 0 mm 4 m/s 689 mmHg 5%
    14:00 +45°C° 0 mm 4 m/s 688 mmHg 4%
    15:00 +46°C° 0 mm 5 m/s 688 mmHg 4%
    16:00 +46°C° 0 mm 5 m/s 688 mmHg 3%
    17:00 +43°C° 0 mm 5 m/s 687 mmHg 3%
    18:00 +41°C° 0 mm 5 m/s 687 mmHg 3%
    19:00 +39°C° 0 mm 5 m/s 687 mmHg 4%
    20:00 +36°C° 0 mm 5 m/s 687 mmHg 5%
    21:00 +35°C° 0 mm 5 m/s 687 mmHg 6%
    22:00 +33°C° 0 mm 5 m/s 687 mmHg 7%
    23:00 +32°C° 0 mm 4 m/s 687 mmHg 8%
    Mostrar mais